| time (UTC) | temp F | wind direction | speed MPH | gust MPH | rain 1hr in | rain 24hr in | rain mn in | humidity % | barometer mb |
| 20260906090056 | 55 | 168 | 0.0 | 0.0 | 0.00 | 0.00 | 0.00 | 93 | 1014.3 |
| 20260906084557 | 54 | 168 | 0.0 | 0.0 | 0.00 | 0.00 | 0.00 | 92 | 1014.4 |
| 20260906083053 | 55 | 169 | 0.0 | 0.0 | 0.00 | 0.00 | 0.00 | 93 | 1014.4 |
| 20260906081552 | 55 | 169 | 0.0 | 0.0 | 0.00 | 0.00 | 0.00 | 92 | 1014.5 |
| 20260906080057 | 55 | 169 | 0.0 | 0.0 | 0.00 | 0.00 | 0.00 | 92 | 1014.5 |
| 20260906074557 | 55 | 169 | 0.0 | 0.0 | 0.00 | 0.00 | 0.00 | 92 | 1014.4 |
| 20260906073049 | 55 | 173 | 0.0 | 1.0 | 0.00 | 0.00 | 0.00 | 92 | 1014.4 |
| 20260906071549 | 54 | 191 | 0.0 | 0.0 | 0.00 | 0.00 | 0.00 | 93 | 1014.2 |
| 20260906070045 | 54 | 125 | 0.0 | 0.0 | 0.00 | 0.00 | 0.00 | 93 | 1014.2 |
| 20260906064544 | 55 | 123 | 0.0 | 0.0 | 0.00 | 0.00 | 0.00 | 94 | 1014.3 |
| 20260906063044 | 55 | 182 | 0.0 | 0.0 | 0.00 | 0.00 | 0.00 | 95 | 1014.3 |
| 20260906061544 | 54 | 104 | 0.0 | 0.0 | 0.00 | 0.00 | 0.00 | 94 | 1014.3 |
| 20260906060055 | 55 | 61 | 0.0 | 0.0 | 0.00 | 0.00 | 0.00 | 94 | 1014.3 |
| 20260906054546 | 55 | 58 | 0.0 | 0.0 | 0.00 | 0.00 | 0.00 | 94 | 1014.5 |
| 20260906053042 | 55 | 56 | 0.0 | 0.0 | 0.00 | 0.00 | 0.00 | 94 | 1014.4 |
| 20260906051545 | 56 | 52 | 0.0 | 0.0 | 0.00 | 0.00 | 0.00 | 94 | 1014.6 |
| 20260906050044 | 56 | 52 | 0.0 | 0.0 | 0.00 | 0.00 | 0.00 | 94 | 1014.5 |
| 20260906044541 | 56 | 20 | 0.0 | 4.0 | 0.00 | 0.00 | 0.00 | 94 | 1014.5 |
| 20260906043041 | 56 | 19 | 0.0 | 8.0 | 0.00 | 0.00 | 0.00 | 94 | 1014.5 |
| 20260906041546 | 57 | 10 | 0.0 | 4.0 | 0.00 | 0.00 | 0.00 | 94 | 1014.6 |
| 20260906040046 | 57 | 5 | 0.0 | 8.0 | 0.00 | 0.00 | 0.00 | 94 | 1014.6 |
| 20260906034539 | 57 | 360 | 1.0 | 8.0 | 0.00 | 0.00 | 0.00 | 93 | 1014.6 |
| 20260906033039 | 57 | 17 | 1.0 | 8.0 | 0.00 | 0.00 | 0.00 | 93 | 1014.7 |
| 20260906031538 | 57 | 26 | 0.0 | 10.0 | 0.00 | 0.00 | 0.00 | 92 | 1014.5 |
| 20260906030037 | 58 | 3 | 1.0 | 9.0 | 0.00 | 0.00 | 0.00 | 92 | 1014.5 |
| 20260906024537 | 58 | 8 | 0.0 | 7.0 | 0.00 | 0.00 | 0.00 | 90 | 1014.6 |
| 20260906023044 | 59 | 358 | 0.0 | 9.0 | 0.00 | 0.00 | 0.00 | 89 | 1014.7 |
| 20260906021535 | 60 | 20 | 0.0 | 8.0 | 0.00 | 0.00 | 0.00 | 88 | 1014.7 |
| 20260906020036 | 61 | 2 | 3.0 | 10.0 | 0.00 | 0.00 | 0.00 | 87 | 1014.8 |
| 20260906014539 | 61 | 360 | 1.0 | 14.0 | 0.00 | 0.00 | 0.00 | 87 | 1014.9 |
| 20260906013035 | 62 | 358 | 1.0 | 9.0 | 0.00 | 0.00 | 0.00 | 86 | 1014.9 |
| 20260906011534 | 63 | 360 | 3.0 | 13.0 | 0.00 | 0.00 | 0.00 | 86 | 1014.8 |
| 20260906010034 | 62 | 355 | 2.0 | 10.0 | 0.00 | 0.00 | 0.00 | 88 | 1014.8 |
| 20260906004534 | 62 | 335 | 2.0 | 14.0 | 0.00 | 0.00 | 0.00 | 87 | 1014.8 |
| 20260906003033 | 63 | 13 | 2.0 | 12.0 | 0.00 | 0.00 | 0.00 | 87 | 1014.9 |
| 20260906001532 | 63 | 348 | 2.0 | 11.0 | 0.00 | 0.00 | 0.00 | 85 | 1014.9 |
| 20260906000032 | 63 | 356 | 2.0 | 10.0 | 0.00 | 0.00 | 0.00 | 86 | 1015.1 |
| 20260905234532 | 63 | 347 | 2.0 | 12.0 | 0.00 | 0.00 | 0.00 | 86 | 1015.2 |
| 20260905233030 | 64 | 331 | 2.0 | 13.0 | 0.00 | 0.00 | 0.00 | 84 | 1015.1 |
| 20260905231530 | 64 | 352 | 2.0 | 12.0 | 0.00 | 0.00 | 0.00 | 84 | 1015.2 |
| 20260905230029 | 64 | 13 | 1.0 | 11.0 | 0.00 | 0.00 | 0.00 | 84 | 1015.4 |
| 20260905224528 | 64 | 2 | 2.0 | 14.0 | 0.00 | 0.00 | 0.00 | 84 | 1015.6 |
| 20260905223027 | 64 | 346 | 2.0 | 11.0 | 0.00 | 0.00 | 0.00 | 82 | 1015.5 |
| 20260905221534 | 65 | 335 | 0.0 | 10.0 | 0.00 | 0.00 | 0.00 | 83 | 1015.6 |
| 20260905220025 | 64 | 6 | 1.0 | 13.0 | 0.00 | 0.00 | 0.00 | 82 | 1015.7 |
| 20260905214524 | 65 | 337 | 1.0 | 10.0 | 0.00 | 0.00 | 0.00 | 81 | 1015.9 |
| 20260905213032 | 64 | 309 | 0.0 | 10.0 | 0.00 | 0.00 | 0.00 | 82 | 1015.8 |
| 20260905211523 | 64 | 348 | 2.0 | 11.0 | 0.00 | 0.00 | 0.00 | 83 | 1015.8 |
| 20260905210028 | 63 | 348 | 2.0 | 10.0 | 0.00 | 0.00 | 0.00 | 83 | 1015.8 |
| 20260905204520 | 63 | 344 | 4.0 | 9.0 | 0.00 | 0.00 | 0.00 | 81 | 1015.7 |
| 20260905203020 | 63 | 299 | 1.0 | 6.0 | 0.00 | 0.00 | 0.00 | 81 | 1015.6 |
| 20260905201525 | 64 | 360 | 0.0 | 0.0 | 0.00 | 0.00 | 0.00 | 78 | 1015.7 |
| 20260905200018 | 64 | 305 | 0.0 | 0.0 | 0.00 | 0.00 | 0.00 | 75 | 1015.5 |
| 20260905194517 | 64 | 346 | 0.0 | 2.0 | 0.00 | 0.00 | 0.00 | 74 | 1015.6 |
| 20260905193017 | 65 | 296 | 0.0 | 0.0 | 0.00 | 0.00 | 0.00 | 71 | 1015.5 |
| 20260905191513 | 64 | 200 | 0.0 | 0.0 | 0.00 | 0.00 | 0.00 | 75 | 1015.4 |
| 20260905190010 | 63 | 302 | 0.0 | 0.0 | 0.00 | 0.00 | 0.00 | 80 | 1015.6 |
| 20260905184510 | 63 | 317 | 0.0 | 0.0 | 0.00 | 0.00 | 0.00 | 81 | 1015.7 |
| 20260905183009 | 63 | 301 | 0.0 | 0.0 | 0.00 | 0.00 | 0.00 | 80 | 1015.6 |
| 20260905181506 | 63 | 300 | 0.0 | 0.0 | 0.00 | 0.00 | 0.00 | 80 | 1015.7 |
| 20260905180005 | 63 | 247 | 0.0 | 0.0 | 0.00 | 0.00 | 0.00 | 82 | 1015.5 |
| 20260905174507 | 62 | 237 | 0.0 | 0.0 | 0.00 | 0.00 | 0.00 | 84 | 1015.5 |
| 20260905173006 | 62 | 236 | 0.0 | 0.0 | 0.00 | 0.00 | 0.00 | 85 | 1015.5 |
| 20260905171600 | 61 | 306 | 0.0 | 1.0 | 0.00 | 0.00 | 0.00 | 86 | 1015.4 |
| 20260905170109 | 61 | 304 | 0.0 | 0.0 | 0.00 | 0.00 | 0.00 | 86 | 1015.4 |
| 20260905164556 | 60 | 346 | 0.0 | 0.0 | 0.00 | 0.00 | 0.00 | 87 | 1015.2 |
| 20260905163054 | 60 | 348 | 0.0 | 0.0 | 0.00 | 0.00 | 0.00 | 88 | 1015.1 |
| 20260905161554 | 59 | 357 | 0.0 | 0.0 | 0.00 | 0.00 | 0.00 | 89 | 1015.2 |
| 20260905160052 | 58 | 356 | 0.0 | 0.0 | 0.00 | 0.00 | 0.00 | 89 | 1015.2 |
| 20260905154554 | 58 | 354 | 0.0 | 0.0 | 0.00 | 0.00 | 0.00 | 88 | 1015.1 |
| 20260905153050 | 58 | 360 | 0.0 | 0.0 | 0.00 | 0.00 | 0.00 | 86 | 1014.9 |
| 20260905151549 | 59 | 2 | 0.0 | 0.0 | 0.00 | 0.00 | 0.00 | 84 | 1014.8 |
| 20260905150047 | 59 | 102 | 0.0 | 0.0 | 0.00 | 0.00 | 0.00 | 86 | 1014.7 |
| 20260905144545 | 57 | 147 | 0.0 | 0.0 | 0.00 | 0.00 | 0.00 | 90 | 1014.4 |
| 20260905143042 | 55 | 130 | 0.0 | 0.0 | 0.00 | 0.00 | 0.00 | 91 | 1014.5 |
| 20260905141546 | 54 | 117 | 0.0 | 2.0 | 0.00 | 0.00 | 0.00 | 90 | 1014.4 |
| 20260905140041 | 54 | 134 | 0.0 | 0.0 | 0.00 | 0.00 | 0.00 | 90 | 1014.3 |
| 20260905134539 | 54 | 100 | 0.0 | 0.0 | 0.00 | 0.01 | 0.00 | 90 | 1014.3 |
| 20260905133039 | 54 | 99 | 0.0 | 0.0 | 0.00 | 0.01 | 0.00 | 89 | 1014.3 |
| 20260905131553 | 54 | 94 | 0.0 | 0.0 | 0.00 | 0.01 | 0.00 | 89 | 1014.1 |
| 20260905130038 | 55 | 110 | 0.0 | 0.0 | 0.00 | 0.01 | 0.00 | 88 | 1014.0 |
| 20260905124546 | 55 | 111 | 0.0 | 0.0 | 0.00 | 0.01 | 0.00 | 88 | 1014.2 |
| 20260905123045 | 55 | 111 | 0.0 | 0.0 | 0.00 | 0.01 | 0.00 | 88 | 1014.1 |
| 20260905121536 | 55 | 111 | 0.0 | 0.0 | 0.00 | 0.01 | 0.00 | 88 | 1014.2 |
| 20260905120035 | 55 | 115 | 0.0 | 0.0 | 0.00 | 0.01 | 0.00 | 89 | 1014.1 |
| 20260905114540 | 54 | 138 | 0.0 | 0.0 | 0.00 | 0.01 | 0.00 | 88 | 1014.2 |
| 20260905113039 | 55 | 110 | 0.0 | 0.0 | 0.00 | 0.01 | 0.00 | 89 | 1014.2 |
| 20260905111538 | 55 | 125 | 0.0 | 0.0 | 0.00 | 0.01 | 0.00 | 88 | 1014.4 |
| 20260905110030 | 55 | 124 | 0.0 | 0.0 | 0.00 | 0.01 | 0.00 | 87 | 1014.3 |
| 20260905104530 | 56 | 127 | 0.0 | 0.0 | 0.00 | 0.01 | 0.00 | 88 | 1014.3 |
| 20260905103032 | 56 | 128 | 0.0 | 0.0 | 0.00 | 0.01 | 0.00 | 88 | 1014.3 |
| 20260905101537 | 55 | 127 | 0.0 | 0.0 | 0.00 | 0.01 | 0.00 | 89 | 1014.3 |
| 20260905100027 | 55 | 122 | 0.0 | 0.0 | 0.00 | 0.01 | 0.00 | 89 | 1014.3 |
| 20260905094526 | 56 | 111 | 0.0 | 0.0 | 0.00 | 0.01 | 0.00 | 89 | 1014.4 |
| 20260905093024 | 56 | 110 | 0.0 | 0.0 | 0.00 | 0.01 | 0.00 | 89 | 1014.6 |
| 20260905091523 | 56 | 110 | 0.0 | 0.0 | 0.00 | 0.01 | 0.00 | 88 | 1014.6 |